Vorticity
nan nan nan nan nan nan nan nan nan nan nan nan nan nan nan nan nan nan nan nan nan nan nan nan nan nan nan nan nan nan nan nan nan nan nan nan nan nan nan nan nan nan nan nan nan
nan 7 7 7 7 7 7 7 7 7 7 8 7 7 7 13 18 8 12 8 10 6 2 6 7 6 6 9 8 8 7 10 7 4 8 9 3 5 7 6 9 15 14 9 nan
nan 7 7 7 7 8 8 8 7 7 7 8 8 8 8 12 13 13 16 14 11 2 1 5 8 9 7 10 9 7 5 6 9 11 8 8 10 4 6 4 13 8 2 3 nan
nan 7 6 7 8 8 8 8 8 7 7 8 8 8 14 14 4 7 19 23 5 2 4 8 8 9 8 6 4 6 9 7 8 8 6 8 13 8 9 13 16 8 4 3 nan
nan 7 7 7 8 9 9 8 8 7 7 8 8 11 14 10 8 9 15 12 5 6 7 6 4 8 5 3 9 10 8 9 8 6 8 11 8 7 9 17 12 8 5 4 nan
nan 7 8 8 8 9 9 8 8 7 8 8 9 11 11 4 17 12 5 3 5 6 8 7 4 6 5 7 11 12 7 8 9 6 6 12 6 9 8 7 9 7 4 5 nan
nan 8 8 8 8 9 9 9 8 8 9 10 11 10 9 7 4 8 7 3 6 5 6 5 7 3 8 7 13 8 7 12 12 7 6 10 3 4 13 8 14 13 4 5 nan
nan 9 8 8 8 9 10 8 8 10 11 11 10 11 5 9 7 4 6 6 9 5 6 3 11 7 8 7 4 12 9 8 12 7 5 5 8 7 0 7 15 13 8 8 nan
nan 9 8 8 9 10 10 8 9 15 15 8 6 8 6 11 16 10 8 6 7 8 7 9 11 9 7 12 5 7 7 7 10 9 4 6 8 5 -2 7 6 9 16 11 nan
nan 10 10 10 9 11 13 15 13 13 14 7 3 5 14 13 11 12 10 9 4 6 9 11 10 6 4 8 5 3 8 5 8 11 6 4 3 7 10 8 6 11 9 14 nan
nan 11 11 11 11 11 15 14 9 11 12 7 3 -1 7 12 8 10 14 9 7 8 8 7 6 5 6 1 3 7 8 -2 15 16 10 9 5 10 15 8 10 8 4 8 nan
nan 13 14 14 14 13 11 8 10 7 14 13 2 1 7 14 8 7 11 9 9 4 2 11 7 10 10 4 4 4 3 9 25 11 4 13 6 11 12 9 9 3 6 9 nan
nan 15 15 18 13 10 11 3 -1 10 18 16 16 7 12 8 9 11 5 7 5 8 9 7 2 8 6 8 10 9 11 14 12 2 3 11 9 12 12 9 4 8 9 14 nan
nan 15 17 13 9 8 9 15 6 4 12 16 10 11 14 6 13 13 5 7 7 6 10 4 12 7 8 15 14 9 10 9 10 8 8 5 12 11 13 11 10 11 13 10 nan
nan 16 22 7 4 7 4 17 12 3 9 14 9 14 15 6 5 13 7 8 10 6 7 4 9 14 16 13 11 9 6 13 10 8 9 4 13 11 12 11 12 13 13 15 nan
nan 20 17 7 9 7 4 9 7 9 10 11 11 10 6 5 4 15 9 3 11 11 5 11 7 10 7 6 7 12 10 9 10 7 7 14 7 6 11 9 13 14 14 14 nan
nan 21 9 3 7 10 13 9 9 5 9 16 10 10 7 7 10 12 12 3 2 6 8 13 11 13 10 5 12 13 9 7 6 13 10 9 6 9 11 10 10 12 14 13 nan
nan 22 8 2 2 8 16 10 8 7 8 13 14 11 7 7 11 11 9 4 5 6 11 7 12 19 13 15 11 3 7 6 8 8 13 9 6 13 12 9 8 10 8 10 nan
nan 14 11 14 13 6 9 10 8 5 8 10 10 8 10 10 14 14 11 8 9 9 5 2 7 11 13 15 6 7 11 8 7 8 12 7 7 8 7 13 9 8 8 8 nan
nan 12 9 18 11 6 9 7 8 6 7 9 10 8 9 15 13 9 7 10 17 9 0 6 14 3 8 12 10 14 3 7 11 12 7 11 10 8 8 8 6 8 9 10 nan
nan 12 15 12 3 9 11 7 6 9 11 11 11 8 9 12 12 11 9 14 15 17 10 1 8 8 12 8 5 6 11 14 14 7 7 8 12 21 13 8 9 6 8 14 nan
nan 8 12 9 8 8 9 8 6 9 9 9 11 12 10 8 7 10 12 8 13 22 17 8 9 16 5 9 15 9 9 11 6 8 11 10 6 14 19 6 5 17 13 15 nan
nan 9 10 11 7 7 7 10 14 14 11 8 9 11 9 11 10 7 7 2 9 20 14 16 8 6 7 13 13 9 9 11 10 13 10 6 8 12 16 10 7 13 13 15 nan
nan 9 10 8 9 8 11 10 11 11 13 12 11 9 8 11 11 8 8 5 7 6 13 21 15 15 10 7 5 2 9 12 11 5 14 5 9 11 14 12 11 12 12 14 nan
nan 13 10 4 6 9 10 10 13 7 5 9 13 9 11 7 9 9 10 10 7 6 12 10 6 10 10 8 10 7 6 15 15 10 7 10 14 9 9 16 15 8 14 10 nan
nan 7 12 10 9 10 8 12 9 10 10 11 7 7 13 10 7 3 8 13 6 3 8 9 11 9 8 8 8 10 11 13 8 18 13 17 8 3 8 10 10 18 20 14 nan
nan nan nan nan nan nan nan nan nan nan nan nan nan nan nan nan nan nan nan nan nan nan nan nan nan nan nan nan nan nan nan nan nan nan nan nan nan nan nan nan nan nan nan nan nan
CAPE
3 3 2 2 1 1 1 2 1 1 2 1 1 1 1 0 0 0 0 0 0 453 508 0 0 0 13 71 73 239 234 82 22 373 39 112 42 184 498 571 435 269 100 40 151
2 2 2 3 0 0 0 0 2 0 2 2 2 1 0 0 0 0 0 0 192 1079 0 0 0 21 84 132 303 385 155 139 123 120 476 377 196 206 103 465 451 319 126 118 87
2 2 3 0 0 0 0 1 2 2 2 3 2 0 0 0 0 0 0 0 1015 769 0 0 0 120 220 101 13 92 98 500 769 194 337 301 271 202 111 225 433 283 170 91 91
3 4 0 0 2 1 0 1 2 1 2 2 2 0 0 0 0 0 22 45 1120 0 0 0 0 0 0 1 40 43 500 635 877 699 595 472 433 358 207 89 414 305 189 54 39
2 1 0 1 0 1 0 0 3 1 1 3 2 0 0 0 0 0 439 798 0 0 0 0 0 0 0 12 33 366 631 911 970 687 516 514 532 519 183 372 495 282 152 30 26
0 1 1 0 0 0 0 1 0 2 2 2 0 0 0 0 0 0 0 0 0 0 0 0 0 0 0 8 45 154 742 639 889 974 649 533 476 420 351 230 222 307 112 36 9
0 0 0 0 0 0 0 1 0 2 1 1 0 0 0 0 0 0 0 0 0 0 0 0 0 0 0 0 161 137 247 259 627 812 752 633 529 613 602 317 304 129 103 39 6
0 0 0 0 0 0 3 0 0 0 1 1 0 0 0 0 0 0 0 0 0 0 0 0 0 0 0 0 192 120 96 43 743 973 949 291 101 685 251 100 107 289 288 189 44
1 1 1 1 2 0 0 0 0 1 1 0 0 0 0 0 0 0 0 0 0 0 0 0 0 0 0 67 15 1 0 24 935 1054 713 386 498 113 22 4 11 18 136 179 51
0 1 1 0 0 0 0 0 0 0 0 0 0 0 0 0 0 0 0 0 0 0 0 0 0 0 0 0 11 70 40 33 666 1050 680 505 251 42 0 3 34 316 84 18 18
1 1 1 2 0 0 0 0 0 0 0 0 0 0 0 0 0 0 0 0 0 0 0 0 0 0 0 0 55 93 26 13 35 1127 651 634 77 109 16 74 257 0 23 150 3
1 1 1 2 1 0 0 0 0 0 0 0 0 0 0 0 0 0 0 0 0 0 0 0 0 0 0 0 5 16 85 58 180 702 170 3 5 312 275 324 0 0 39 181 10
1 5 4 3 0 0 0 0 0 0 0 0 0 0 0 0 0 0 0 0 0 0 0 0 0 0 0 0 1 39 43 0 116 291 400 417 14 58 235 394 323 82 163 35 3
0 2 1 0 0 0 0 0 0 0 0 0 0 0 0 0 0 0 0 0 0 0 0 0 0 0 0 0 4 21 0 0 0 28 27 52 5 0 0 23 107 58 4 29 3
8 0 0 0 0 0 0 0 0 0 0 0 0 0 0 0 0 0 0 0 0 0 0 0 0 0 0 0 0 0 0 0 0 49 117 9 0 0 59 35 0 0 2 23 39
5 1 0 0 0 0 0 0 0 0 0 0 0 0 0 0 0 0 0 0 0 0 0 0 0 0 0 0 0 0 0 0 0 0 0 0 0 0 70 22 0 0 20 0 61
0 0 0 0 0 0 0 0 0 0 0 0 0 0 0 0 0 0 0 0 0 0 0 0 0 0 0 0 0 0 0 0 0 0 0 0 0 0 0 12 0 0 15 99 40
0 0 0 0 0 0 0 0 0 0 0 0 0 0 0 0 0 0 0 0 0 0 0 0 0 0 0 0 0 0 0 0 0 0 0 0 0 0 43 120 175 134 75 124 91
0 0 0 0 0 0 0 0 0 0 0 0 0 0 0 0 0 0 0 0 0 0 0 0 0 0 0 0 0 0 0 0 0 0 0 0 4 18 20 7 0 45 136 86 182
0 0 0 0 0 0 0 0 0 0 0 0 0 0 0 0 0 0 0 0 0 0 0 0 0 0 0 0 0 0 0 0 0 0 0 0 25 112 151 4 0 0 126 103 237
0 0 0 0 0 0 0 0 0 0 0 0 0 0 0 0 0 0 0 0 0 0 0 0 0 0 0 0 0 0 0 0 0 0 0 0 0 1 152 10 0 0 92 108 270
0 0 0 0 0 0 0 0 0 0 0 0 0 0 0 0 0 0 0 0 0 0 0 0 0 0 0 0 0 0 0 0 0 0 0 0 0 0 76 20 0 0 0 3 324
0 0 0 0 0 0 0 0 0 0 0 0 0 0 0 0 0 0 0 0 0 0 0 0 0 0 0 0 0 0 0 0 0 0 0 0 0 1 17 23 0 2 15 133 402
0 0 0 0 0 0 0 0 0 0 0 0 0 0 0 0 0 0 0 0 0 0 107 0 0 0 0 0 0 0 0 0 0 0 0 0 0 3 13 16 147 437 357 542 512
0 0 0 0 0 0 0 0 0 0 0 0 0 0 0 0 0 0 0 0 0 0 0 0 0 0 0 0 0 0 0 0 0 0 0 0 0 179 130 140 8 90 299 301 331
0 0 0 0 0 0 0 0 0 0 0 0 0 0 0 0 0 0 0 0 0 0 0 0 0 0 0 0 0 0 0 0 0 0 0 0 0 126 58 140 220 13 622 585 398
0 0 0 0 0 0 0 0 0 0 0 0 0 0 0 0 0 0 0 0 0 0 0 0 0 0 0 0 0 0 0 0 3 0 0 30 2 58 215 280 227 157 157 126 29